User: anonymous   Login
Location: Bermeries
(50.2863°N, 3.7551°E)
Time: 05:31:37
(UTC+00:00)
Language:

Cosmos 1300 - Orbit

View from above orbital plane
View from above orbital plane
View from above satellite
View from above satellite

Ground track
Ground track

The orbit data is extracted from the following two-line orbital elements,

1 12785U 81082A   24205.43045915  .00019236  00000-0  57918-3 0  9990
2 12785  82.4965  17.0319 0001031 126.2704 233.8634 15.34226396345492
Epoch (UTC): 23 July 2024 10:19:51
Eccentricity: 0.0001031
inclination: 82.4965°
perigee height: 462 km
apogee height: 464 km
right ascension of ascending node: 17.0319°
argument of perigee: 126.2704°
revolutions per day: 15.34226396
mean anomaly at epoch: 233.8634°
orbit number at epoch: 34549

The dashed part of the orbit path shows where the satellite is in the earth's shadow,  

DLR